Find Starlink 11493

NORAD ID: 62410 Int'l Des: 2024-249 Owner: SPXS Country: US Constellation: starlink operational
別名: STARLINK-11493 [DTC] celestrak
LEOCIRCULAR

現在のビュー

3D地球を読み込み中...

About Starlink 11493

Starlink 11493 (NORAD 62410) is a starlink constellation satellite (v2 mini d2c) launched Dec 23, 2024 by SPXS of US. It operates in LEO, CIRCULAR orbit with a mass of 960.00 kg.

次回通過

Passes for default location (London). Set your location on the main map for personalized predictions.

高度履歴

Loading altitude history...

軌道要素

1 62410U 24249B 26263.66668981 -.00147602 00000-0 -11644-2 0 9993
2 62410 43.0007 72.7872 0001609 262.9294 7.9309 15.70898089 5954
Epoch: Sep 20, 2026 • Age: 15 hours

現在のステータス

高度 360.2 km
遠地点 / 近地点 N/A
速度 7.70 km/s
衛星直下点 39.64°N, 88.16°E
打ち上げ日 Dec 23, 2024
運用期間 1.7 years
タイプ internet

技術仕様

分類 Payload
質量 960.00 kg
乾燥質量 910.00 kg
長さ 0.30 m
スパン 29.00 m
形状 ? Box + pan
製造者 SPXS
バスタイプ Starlink V2MD
フェーズステータス In Orbit
所有者/国 SPXS/US

Most Searched